Temp
20 20 21 21 19 19 18 18 18 19 20 20 20 21 21 21 21 21 20 20 19 18 18 17 17 16 16 16 16 16 16 16 16 16 16 16 16 16 16 16 15 15 15
19 19 19 19 19 18 18 19 18 18 19 20 20 20 20 21 21 21 20 20 19 19 18 18 17 17 16 16 16 16 16 17 16 16 16 16 16 16 16 15 15 15 15
18 18 18 18 19 18 18 18 18 18 18 18 18 19 20 20 20 20 20 20 19 19 18 18 18 18 17 17 17 16 17 17 17 16 16 16 16 16 16 16 15 15 15
18 18 18 18 19 19 18 18 17 18 18 17 16 18 18 19 20 20 20 20 19 19 19 19 19 18 18 17 17 17 17 17 17 17 16 16 16 16 16 15 15 15 15
18 18 17 17 18 18 18 18 18 17 17 16 17 17 18 18 18 19 20 20 20 19 19 19 19 19 19 18 17 17 17 17 17 17 17 16 16 16 16 15 15 15 15
17 17 17 17 16 17 17 17 17 17 17 17 16 16 16 17 17 18 18 19 20 20 19 19 19 19 19 19 18 18 17 17 17 17 17 17 17 16 16 16 15 15 14
17 16 18 17 17 16 16 16 17 16 16 16 16 15 16 16 16 17 18 19 19 20 20 19 19 18 19 19 19 19 18 18 17 17 17 17 17 16 16 15 15 14 13
16 15 16 16 16 16 15 15 15 15 15 16 15 15 16 16 16 17 16 17 18 19 19 19 19 19 19 19 19 19 19 18 18 17 17 17 17 16 15 15 14 14 13
16 16 16 16 16 16 15 15 15 15 15 16 16 17 17 17 19 19 17 17 17 17 18 18 18 19 19 19 18 18 19 19 19 18 17 17 16 15 15 15 14 14 13
16 16 15 16 16 15 15 15 15 16 16 16 16 16 17 17 18 18 20 19 18 18 18 18 19 18 18 18 18 18 19 19 18 18 17 17 16 16 16 15 15 14 13
15 15 15 15 15 15 15 15 15 15 15 15 16 16 16 16 16 15 16 18 18 18 19 20 20 19 18 18 18 17 18 18 18 18 18 16 16 16 16 15 15 14 13
13 13 13 13 14 14 14 14 15 15 15 15 15 15 15 14 14 14 14 16 17 18 18 18 18 18 18 18 17 17 17 18 18 18 18 18 16 16 16 15 15 14 14
10 10 11 11 12 12 13 13 13 14 14 14 14 14 14 14 14 14 14 15 15 17 18 18 18 18 17 17 17 17 17 17 17 18 17 15 16 16 16 16 15 14 14
8 8 9 9 9 10 11 11 11 11 12 13 13 14 14 14 14 14 14 14 14 15 16 17 17 18 17 16 16 16 16 17 16 17 16 17 16 15 15 16 15 15 14
7 7 8 8 8 9 9 9 9 9 9 10 10 11 12 13 14 14 14 13 14 14 14 16 17 17 16 15 16 16 17 17 16 16 16 16 16 16 15 15 15 15 14
6 7 7 7 7 8 8 8 7 8 8 8 8 8 9 10 10 11 12 13 13 14 14 14 15 15 15 15 16 16 16 16 16 15 15 15 16 16 15 14 15 14 13
6 6 6 6 6 6 6 7 7 7 7 7 7 7 7 8 8 9 9 11 12 13 13 14 14 15 14 14 15 15 15 14 15 15 15 15 16 15 14 14 14 13 13
5 5 5 6 6 6 6 6 6 6 6 6 6 6 6 7 7 7 7 7 8 9 11 13 14 13 12 13 14 14 14 14 14 15 15 15 15 13 13 13 13 13 12
5 5 5 5 5 5 5 5 5 5 6 6 6 5 6 6 6 5 5 6 7 7 8 8 12 12 12 12 12 12 12 13 13 14 13 13 13 12 11 12 12 12 11
4 4 4 4 4 4 5 3 4 4 4 5 5 5 5 5 4 4 4 5 5 6 7 7 8 10 10 10 10 10 10 10 10 10 10 10 11 11 11 11 11 10 9
3 3 3 3 3 3 4 2 2 3 3 4 4 4 4 4 4 4 3 4 4 4 5 6 7 8 8 7 8 9 8 8 8 8 9 10 10 10 10 10 10 9 9
3 3 3 3 3 3 3 2 1 1 2 3 3 3 3 3 4 3 4 4 3 3 4 5 5 7 8 8 8 8 7 6 5 7 8 8 9 9 9 9 9 9 9
2 2 2 1 1 2 2 1 1 1 2 2 2 2 2 3 3 3 3 3 3 4 4 4 4 5 6 7 7 8 7 7 8 8 7 7 7 7 8 8 8 8 8
1 1 1 1 1 1 1 0 0 0 1 1 2 2 2 2 2 1 1 1 1 2 3 3 3 3 4 4 4 5 7 7 7 7 7 7 6 7 7 7 7 7 7
-0 -0 0 -0 -0 0 0 -0 -0 0 1 1 2 2 2 2 2 1 0 0 1 0 0 1 1 2 3 3 4 4 5 6 5 5 6 7 5 5 5 6 6 6 6
-1 -0 -1 -0 0 0 1 0 -0 0 1 1 2 2 2 2 1 0 0 0 -0 -0 -0 -0 0 0 1 2 3 4 4 5 6 3 5 5 3 4 2 3 5 5 5
Height
788 790 791 791 792 794 796 797 799 800 802 804 806 807 808 809 811 811 812 811 812 814 815 818 819 818 818 819 820 821 822 823 824 824 824 823 824 824 823 823 823 823 822
784 786 788 789 791 791 793 795 796 797 799 801 803 806 806 806 807 808 809 809 810 810 812 813 815 817 817 816 817 818 819 820 820 821 822 822 822 822 822 822 822 822 822
781 783 784 787 788 789 790 792 793 794 795 798 801 802 803 803 804 805 805 806 807 808 808 808 810 811 812 814 814 815 815 816 817 818 819 819 820 820 821 820 820 821 820
778 779 781 785 785 786 787 789 790 791 791 794 794 796 797 799 800 800 801 802 803 803 803 804 804 806 808 809 811 812 812 813 813 814 815 815 816 817 818 819 819 819 818
774 776 778 780 784 784 785 786 787 787 788 791 790 793 794 794 795 796 795 796 798 798 798 799 800 801 801 804 806 808 809 810 810 810 811 812 812 813 814 815 816 817 816
770 773 775 774 781 781 783 784 784 784 785 787 787 788 788 790 791 790 791 792 792 793 793 794 795 795 796 797 800 802 804 805 806 806 807 808 808 809 810 811 812 814 814
769 771 771 772 776 779 780 782 781 781 781 783 784 784 784 784 785 784 784 786 787 786 787 789 789 789 791 792 793 796 798 799 801 801 802 803 804 805 806 808 809 810 811
763 766 767 769 771 774 774 777 776 778 778 779 779 781 780 779 777 776 777 779 779 780 780 783 784 782 781 784 785 788 791 793 794 796 797 798 799 800 802 803 806 806 808
759 761 764 765 768 771 771 772 770 771 774 775 774 775 775 772 769 767 768 769 771 772 774 775 776 776 774 775 778 780 784 786 788 790 793 794 795 797 798 800 802 803 804
755 758 761 763 764 766 765 767 767 765 770 770 770 769 768 768 767 764 763 762 762 763 764 766 768 768 767 769 771 773 775 779 781 783 787 788 791 793 795 797 799 800 801
754 757 758 760 762 762 762 763 762 761 764 764 765 765 765 765 765 767 763 760 759 758 757 758 757 757 759 763 764 766 768 771 773 776 779 782 784 786 790 792 793 794 796
750 753 756 757 758 758 759 759 759 759 760 758 760 760 760 758 758 759 758 756 754 753 753 751 751 749 752 756 758 759 761 764 766 769 771 775 780 783 782 786 787 788 789
751 754 757 758 757 756 757 756 756 754 755 753 753 755 752 749 751 752 751 749 748 746 746 745 745 744 744 748 750 752 754 756 759 759 765 771 772 777 778 779 780 781 783
754 757 758 758 757 754 754 754 752 750 749 749 748 747 744 743 743 742 742 744 740 739 738 733 736 738 738 739 741 744 746 746 750 751 759 761 767 771 773 773 774 775 776
759 760 760 758 757 754 754 754 751 748 749 747 744 741 738 735 734 733 733 731 731 729 725 725 727 727 731 734 735 737 736 740 742 747 748 752 753 758 765 766 767 770 771
761 761 760 757 757 755 755 754 752 748 747 745 741 741 738 736 733 730 728 723 723 720 716 716 718 719 722 725 727 728 730 733 737 741 742 744 745 747 753 758 759 761 765
763 762 760 759 755 756 753 751 749 748 747 745 742 740 739 736 732 729 727 721 715 711 709 710 712 714 716 717 720 722 726 728 728 731 733 734 736 738 743 748 751 754 758
767 765 762 760 756 755 757 750 748 748 748 745 742 740 739 734 730 731 726 722 719 716 714 705 704 705 706 709 712 714 717 718 719 721 723 725 725 729 734 738 741 745 752
765 765 763 760 758 757 755 752 752 751 749 745 743 741 739 735 732 730 726 722 719 717 713 708 702 701 704 705 706 707 708 709 709 711 713 713 714 718 724 728 733 738 745
764 763 761 760 758 756 754 754 752 749 746 744 743 740 738 735 732 728 725 724 721 718 713 710 706 704 701 701 701 702 701 701 702 703 705 705 707 711 715 720 727 733 738
766 764 762 760 758 757 755 753 751 748 746 743 741 738 735 733 730 728 726 723 721 719 716 711 708 704 702 701 699 696 697 697 698 699 700 701 703 705 709 716 722 728 732
767 765 762 760 758 756 755 753 750 746 744 741 738 735 733 730 728 726 725 724 723 719 716 713 709 705 703 700 697 695 694 695 697 693 695 697 699 701 704 709 715 720 727
767 764 762 760 758 755 753 751 749 746 743 739 737 734 732 729 726 724 722 721 718 717 715 713 708 706 701 700 698 693 691 689 688 687 690 692 695 697 702 707 710 714 720
766 763 761 759 756 754 751 749 747 744 741 738 735 732 730 728 726 723 721 718 716 713 711 709 707 703 700 699 696 694 690 684 684 683 686 686 688 691 695 700 705 710 716
765 762 760 757 754 752 749 747 745 741 738 734 731 729 726 725 723 721 718 715 712 709 707 704 701 698 696 694 693 691 686 683 679 677 679 681 684 687 691 693 698 703 708
764 760 757 754 751 748 746 744 742 738 734 731 728 726 723 722 720 719 717 714 710 707 702 697 694 691 689 686 684 684 683 678 674 672 672 677 678 682 688 687 690 696 702
Wind_Speed
14 14 16 14 13 16 18 21 22 20 19 18 20 19 17 16 14 13 11 13 13 15 14 14 14 14 14 13 13 12 12 11 11 10 10 9 8 8 7 6 5 5 4
13 15 15 15 16 17 18 20 19 19 17 18 18 18 19 17 16 15 14 13 13 16 17 17 17 17 17 16 15 15 14 14 14 14 13 12 12 11 10 9 8 7 6
12 13 13 15 15 17 17 18 17 18 18 18 17 18 19 19 19 17 17 15 14 14 17 20 20 20 19 18 18 18 18 17 17 17 16 17 16 15 14 12 10 9 9
16 12 12 13 12 11 13 14 17 21 21 20 23 22 20 20 20 19 18 18 18 16 16 18 22 22 21 20 19 18 19 19 18 17 16 16 17 18 17 15 14 12 10
14 15 12 12 12 12 13 14 17 18 17 19 21 22 22 21 23 21 21 22 21 20 17 18 19 22 25 23 22 20 21 20 19 17 17 17 17 18 19 18 16 14 12
15 13 14 10 19 15 13 16 19 18 21 18 20 21 20 21 20 22 21 23 25 23 21 21 19 20 23 27 26 25 23 22 19 19 19 19 19 18 19 19 19 16 13
16 17 14 12 18 18 17 18 20 18 19 21 14 17 20 25 26 26 27 25 23 24 23 23 22 21 19 21 26 30 28 26 24 23 22 20 19 18 19 20 21 17 15
17 18 17 19 16 20 17 18 20 16 18 18 10 11 4 12 28 31 29 30 29 26 25 26 27 27 26 24 25 29 31 30 28 25 23 22 21 20 20 21 21 19 18
19 17 17 18 22 20 18 18 19 21 19 20 26 13 3 6 8 18 30 33 32 31 33 32 35 34 30 29 28 29 30 32 32 30 24 22 20 20 21 22 22 21 18
15 16 17 17 20 20 21 21 21 21 22 20 18 23 24 12 3 5 14 19 29 30 31 31 30 30 28 28 33 34 35 33 31 29 28 23 20 19 22 23 23 22 19
6 7 12 14 17 18 21 22 21 21 22 21 21 16 17 20 20 7 8 10 12 21 24 27 25 23 24 28 29 33 37 34 29 28 25 25 21 22 23 26 26 26 22
3 1 4 6 8 12 17 20 21 23 24 23 23 23 22 10 14 12 10 14 17 26 23 26 26 24 23 29 32 38 39 34 31 26 28 28 25 27 26 29 28 29 26
10 8 4 4 4 6 9 12 14 15 19 23 24 27 27 29 27 23 22 16 11 28 28 28 24 21 23 29 33 33 36 33 32 27 25 24 24 30 33 33 31 31 29
13 11 9 8 7 6 6 9 7 8 10 15 23 27 28 28 26 27 27 18 9 13 28 31 32 31 27 31 30 30 32 27 28 25 28 25 29 33 35 35 35 32 31
13 12 11 11 11 12 11 12 11 13 15 14 14 16 15 18 29 29 29 26 20 11 11 27 26 30 27 28 30 30 25 26 25 27 30 30 30 33 38 38 35 33 31
14 14 15 15 15 14 14 13 14 15 17 16 17 19 17 18 20 18 22 33 32 25 12 15 22 23 27 27 30 27 25 24 24 27 29 31 33 36 42 42 39 36 34
14 15 14 14 16 17 14 16 18 18 18 18 18 19 19 19 21 21 22 23 19 23 9 20 23 26 30 28 28 26 27 28 29 31 33 34 37 39 44 44 41 35 37
11 11 12 12 12 13 14 15 17 17 17 17 16 17 18 19 18 19 23 22 21 26 21 15 22 21 25 29 30 30 33 34 34 37 40 41 40 41 46 46 41 36 36
12 12 12 12 12 12 13 13 12 12 13 14 15 15 16 16 15 18 20 20 22 21 21 17 16 14 22 27 28 32 36 36 39 43 44 39 37 38 43 43 41 34 38
12 13 13 13 13 13 11 12 14 15 16 15 14 14 14 14 17 18 17 17 18 20 19 17 16 14 13 19 21 19 24 32 34 35 34 34 32 40 41 33 30 35 30
12 13 13 13 13 13 10 14 15 16 16 17 16 14 15 17 18 14 17 18 18 18 18 16 13 10 6 6 10 16 20 20 24 25 24 27 33 34 29 33 37 33 27
14 15 15 16 17 14 14 15 16 18 18 17 17 17 17 17 15 17 16 15 16 18 18 16 16 13 14 14 17 17 14 7 2 22 27 26 33 32 36 37 36 33 29
15 15 15 16 17 16 16 17 16 16 17 17 17 17 18 16 18 18 18 18 19 16 16 19 19 18 18 17 20 19 19 16 14 16 30 19 31 28 34 34 36 34 32
15 15 15 15 16 16 15 16 15 16 18 18 17 16 16 17 17 16 20 20 20 20 19 21 22 24 24 26 28 27 22 28 22 18 28 12 27 24 33 36 37 37 33
14 14 14 15 15 16 14 13 12 15 15 16 16 14 14 15 16 19 22 22 23 22 22 23 25 26 27 27 27 28 22 17 7 11 28 15 15 20 25 33 36 38 35
15 14 15 14 14 15 13 11 12 14 16 16 15 16 14 13 13 16 19 20 21 23 28 30 30 28 27 26 25 26 24 20 17 5 22 21 18 18 4 22 33 37 36
Wind_Direction
235 234 241 246 222 219 218 221 216 218 219 221 226 228 228 227 230 233 233 244 241 233 229 229 235 232 232 236 239 242 244 248 252 252 252 251 254 257 258 259 265 283 298
240 239 247 241 233 225 223 222 221 221 215 220 227 233 234 234 234 234 237 248 254 243 238 236 233 240 239 237 239 242 243 246 249 252 253 255 255 256 257 257 261 270 280
219 247 243 242 233 234 232 234 228 218 215 217 227 237 237 238 238 238 239 237 251 260 247 241 240 239 243 246 244 242 246 251 253 254 254 257 258 256 256 252 253 259 269
223 224 233 245 238 237 235 240 238 231 240 230 222 227 228 234 235 235 240 242 239 239 253 248 241 243 245 245 246 251 250 253 256 259 256 256 256 255 253 252 250 251 255
220 223 224 262 262 256 251 244 241 233 232 227 223 229 232 231 234 237 236 239 239 237 239 248 251 247 243 245 246 247 250 254 256 255 258 264 258 253 249 246 245 248 244
214 223 232 243 286 278 269 257 255 249 245 242 235 232 231 232 234 233 251 246 240 237 236 239 245 249 247 243 245 248 248 250 253 256 263 267 261 253 249 244 240 243 232
213 216 222 234 236 253 249 252 259 253 244 240 239 238 241 240 244 245 238 241 246 242 237 236 233 234 244 252 248 246 247 249 249 252 259 264 258 255 246 240 237 228 225
218 228 238 247 248 246 245 247 247 254 254 243 230 236 235 243 242 239 238 241 246 242 237 238 235 234 231 236 246 245 242 245 249 250 253 258 254 249 242 234 230 221 224
222 228 237 247 245 242 243 247 242 248 248 237 231 226 199 241 262 239 231 235 237 236 245 243 242 238 237 235 236 242 246 244 247 249 250 253 255 250 239 229 226 224 222
210 218 227 237 242 247 250 247 250 242 244 248 238 227 241 256 272 266 260 232 234 236 235 235 237 233 234 234 235 245 249 247 243 246 248 249 244 247 240 230 228 225 222
198 234 242 247 254 258 255 253 255 251 249 247 245 233 235 246 246 245 261 259 257 243 237 236 230 235 234 233 234 236 240 244 245 240 242 245 243 239 239 233 226 219 220
110 62 256 260 264 275 277 271 266 262 258 253 251 245 236 227 229 229 243 254 254 256 259 254 242 231 236 236 237 241 245 245 244 232 243 245 246 243 240 239 230 220 219
49 36 13 322 306 295 293 281 277 275 271 266 263 253 248 239 241 236 238 248 249 250 248 242 245 233 231 235 242 247 245 242 241 236 228 240 254 253 245 243 236 225 215
53 41 36 19 11 358 340 341 331 342 329 286 272 257 256 252 243 240 242 241 248 247 245 240 243 244 232 235 241 244 236 241 242 235 225 235 254 254 252 249 244 235 221
45 38 38 32 25 31 15 4 3 351 346 343 336 352 357 289 257 245 241 239 238 247 240 236 231 225 224 229 234 236 243 242 233 225 228 235 240 247 249 251 245 239 230
38 32 25 28 20 22 17 9 1 5 351 348 354 345 346 342 338 339 301 255 244 244 249 213 230 234 231 239 246 245 238 235 236 239 242 246 248 249 252 247 245 234 218
24 18 13 9 13 5 3 5 3 358 351 350 348 343 341 346 347 338 333 355 275 229 253 261 248 244 237 231 236 239 237 238 247 253 251 255 261 253 245 241 238 228 213
14 8 6 358 9 2 348 4 355 351 343 342 343 344 337 343 348 341 339 342 344 330 325 254 245 220 224 227 230 234 241 252 259 260 262 260 258 252 243 236 228 219 217
3 357 356 356 353 348 348 352 342 331 325 334 336 338 333 341 347 343 343 340 338 331 332 329 311 260 250 246 244 246 248 253 255 259 259 258 257 251 233 222 216 211 213
348 346 347 344 341 342 339 339 335 333 331 326 325 326 328 335 338 338 341 337 332 326 329 329 319 310 254 247 246 247 253 255 252 254 255 256 242 222 214 204 216 209 208
340 337 333 330 331 330 327 334 333 327 323 320 322 325 327 326 331 333 330 330 333 328 321 316 316 309 279 248 225 239 236 247 244 245 229 215 202 202 213 220 216 210 217
330 328 327 326 324 321 322 327 329 324 320 319 320 323 324 326 328 325 322 320 320 319 318 313 309 307 307 293 272 248 221 184 238 227 209 201 213 207 206 208 210 214 214
323 323 322 320 317 315 315 319 324 322 315 314 317 319 320 322 326 328 327 325 322 316 313 308 304 303 306 305 301 257 223 216 225 232 202 202 201 199 206 209 217 215 214
321 319 315 312 309 307 307 310 314 315 309 306 304 308 311 319 324 340 335 326 322 313 311 308 301 299 299 303 306 299 284 246 241 235 212 213 203 205 208 215 218 219 215
311 308 305 304 302 302 305 302 304 304 300 300 298 301 301 306 313 330 330 326 324 319 313 307 305 302 296 295 292 296 287 258 232 214 215 215 193 198 202 206 210 216 212
306 307 306 306 307 306 314 312 314 316 313 312 312 309 307 307 309 314 316 314 308 310 313 313 308 303 298 293 287 275 282 266 246 210 211 203 185 185 187 206 198 202 207